Miscellaneous Local Product
Issued by NWS North Platte, NE

Home | Current Version | Previous Version | Text Only | Print | Product List | Glossary Off
Versions: 1 2 3 4 5 6 7 8 9 10 11 12 13 14 15 16 17 18 19 20 21 22 23 24 25 26 27 28 29 30 31 32 33 34 35 36 37 38 39 40 41 42 43 44 45 46 47 48 49 50

000
AXUS43 KLBF 281310
MISLBF


WESTERN AND NORTH CENTRAL NEBRASKA HOURLY WEATHER ROUNDUP
NATIONAL WEATHER SERVICE NORTH PLATTE NE
800 AM CDT SAT MAY 28 2016

NOTE: "FAIR" INDICATES FEW OR NO CLOUDS BELOW 12,000 FEET WITH NO
SIGNIFICANT WEATHER AND/OR OBSTRUCTIONS TO VISIBILITY.

NOTE: STATIONS NOT REPORTING VARIABLES SUCH AS SKY/WEATHER OR
PRESSURE ARE PROVIDED BY RAWS AND APRS NETWORKS AND ARE NOT UNDER
NATIONAL WEATHER SERVICE QUALITY CONTROL.

...OBSERVATIONS IN AND NEAR THE EASTERN PANHANDLE OF NEBRASKA...

CITY           SKY/WX    TMP DP  RH WIND       PRES   REMARKS
PINE RIDGE     SUNNY     43  41  93 CALM      29.90S
CHADRON        SUNNY     45  43  93 W8        29.91R
ALLIANCE       SUNNY     44  42  93 W3        29.92R
SIDNEY         SUNNY     47  43  86 W6        29.95R
CRESCENT LAKE    N/A     49  47  93 W8          N/A
BIG SPRINGS      N/A     46  44  94 W3          N/A
$$

...OBSERVATIONS IN NORTHERN NEBRASKA AND FAR SOUTHERN SOUTH DAKOTA...

CITY           SKY/WX    TMP DP  RH WIND       PRES   REMARKS
WINNER         CLOUDY    58  54  86 NW6       29.82R
VALENTINE      CLOUDY    54  50  86 W7        29.86R
THEDFORD       CLOUDY    53  51  92 W8        29.87R
AINSWORTH      CLOUDY    56  52  85 NW8       29.84R
O`NEILL        RAIN      57  56  94 NW10      29.78S
ORD            CLOUDY    57  54  89 W8        29.79R
BROKEN BOW     CLOUDY    57  53  86 W12       29.83R
BUTTE            N/A     56  55  97 NW6         N/A
CHAMBERS         N/A     57  56  97 W6          N/A
EWING            N/A     57  56  96 W9          N/A
$$

...OBSERVATIONS IN SOUTHWEST NEBRASKA AND FAR NORTHEAST COLORADO...

CITY           SKY/WX    TMP DP  RH WIND       PRES   REMARKS
HOLYOKE        FAIR      54  46  76 W7        29.94R
IMPERIAL       SUNNY     52  46  80 NW7       29.91R
OGALLALA       SUNNY     52  48  88 CALM      29.91S
NORTH PLATTE   MOSUNNY   53  50  89 W7        29.89R
MCCOOK         SUNNY     54  51  90 NW9       29.88R
LEXINGTON      CLOUDY    56  52  89 W8        29.85R
PAXTON           N/A     48  45  91 W3          N/A
STAPLETON        N/A     54  52  92 CALM        N/A
GOTHENBURG       N/A     53  49  88 NW5         N/A
CALLAWAY         N/A     53  52  96 NW10        N/A
$$

...OBSERVATIONS IN CENTRAL LINCOLN COUNTY AREA...

CITY           SKY/WX    TMP DP  RH WIND       PRES   REMARKS
N.P. AIRPORT   MOSUNNY   53  50  89 W7        29.89R
N.P. DOWNTOWN    N/A     52  49  89 CALM        N/A
N.P. SOUTHEAST   N/A     52  48  86 CALM        N/A
N.P. HILLCREST   N/A     50  48  93 NW3         N/A
$$

...SOME OBSERVATIONS FROM AROUND THE REGION...

CITY           SKY/WX    TMP DP  RH WIND       PRES   REMARKS
DENVER         MOSUNNY   48  39  71 SW10      30.01R
LARAMIE        CLOUDY    42  38  85 SW6       30.05R
CHEYENNE       CLOUDY    51  38  60 NW8       30.01R
SCOTTSBLUFF    SUNNY     45  42  89 NW5       29.94R
RAPID CITY     SUNNY     54  48  80 W6        29.90R
BISMARCK       CLOUDY    58  55  90 E8        29.87S FOG
PIERRE         CLOUDY    58  53  84 NW8       29.81R
SIOUX FALLS    RAIN      61  60  97 CALM      29.74R FOG
OMAHA          PTSUNNY   64  58  80 S14       29.76R
GRAND ISLAND   LGT RAIN  57  54  89 NW10      29.81R
KANSAS CITY    CLOUDY    63  60  90 S13       29.78S
WICHITA        MOSUNNY   62  57  83 W10       29.85R
OKLAHOMA CITY  CLOUDY    65  64  97 S6        29.91R
DALLAS         LGT RAIN  68  64  87 S5        29.91R FOG
AMARILLO       SUNNY     56  46  69 N5        30.01R
DODGE CITY     SUNNY     53  48  83 W14       29.92R
HAYS           SUNNY     54  46  76 W9        29.87R
GOODLAND       SUNNY     51  47  86 NW8       29.94R
$$




USA.gov is the U.S. government's official web portal to all federal, state and local government web resources and services.